sat.trackr.live / text

‹ back to catalog

STARLINK-2356

NORAD 47896 · 2021-021AN

PAYLOAD ACTIVE UNKNOWN

§ Identity

Operator
Country
US
Launch date
2021-03-14
Launch site
AFETR
Launch vehicle
Mass (kg)
RCS (m²)

Purposes: comms

External: N2YO · Heavens-Above · Gunter

§ Orbital elements

Epoch: 2026-05-25T02:25:15.454848Z

Period
94.01 min
Inclination
53.1583°
Eccentricity
0.0001118
Mean motion
15.31705154 rev/d
Perigee alt
470.0 km
Apogee alt
471.5 km
Semi-major
6,848.9 km
B*
2.7534e-5
RAAN
285.5719°
Arg perigee
87.3474°
Mean anomaly
272.7656°
Rev number
28,772

§ Raw data

STARLINK-23561 47896U 21021AN  26145.10087332  .00000490  00000+0  27534-4 0  99992 47896  53.1583 285.5719 0001118  87.3474 272.7656 15.31705154287725

JSON: /api/v1/satellites/47896 · /tle

For live sub-satellite position, see the globe view (requires WebGL).

§ Visibility from observer

Set your observer location to see the next 7 days of passes ≥ 10°. The values pass through the URL so the page stays shareable.

No JS? Fill the form by hand. The geolocation button needs JavaScript.